Change the Weather History Date:

Monday, July 1, 2013

  Actual Average (KLWD) Record (KLWD)
Temperature  
Mean Temperature 66 °F 74 °F  
Max Temperature 80 °F 84 °F 97 °F (1970)
Min Temperature 53 °F 64 °F 55 °F (2013)
Degree Days  
Heating Degree Days 0 0  
Month to date heating degree days 0  
Since 1 June heating degree days 19  
Since 1 July heating degree days 0  
Cooling Degree Days 2 9  
Month to date cooling degree days 9  
Year to date cooling degree days 256  
Since 1 June cooling degree days 202  
Growing Degree Days 16 (Base 50)    
Moisture  
Dew Point 50 °F    
Average Humidity 57    
Maximum Humidity 84    
Minimum Humidity 31    
Precipitation  
Precipitation 0.00 in 0.17 in 1.13 in (1965)
Month to date precipitation 0.17  
Sea Level Pressure  
Sea Level Pressure 30.12 in    
Wind  
Wind Speed 7 mph (North)    
Max Wind Speed 14 mph    
Max Gust Speed 21 mph    
Visibility 10 miles    
Events      
T = Trace of Precipitation, MM = Missing Value Source: NWS Daily Summary

Daily Weather History Graph

Daily Weather History Graph

Search for Another Location

Airport or City:

Trip Planner

Search our weather history database for the weather conditions in past years. The results will help you decide how hot, cold, wet, or windy it might be!

Date:

Astronomy

Jul. 01, 2013 Rise Set
Actual Time 5:46 AM CDT 8:50 PM CDT
Civil Twilight 5:12 AM CDT 9:24 PM CDT
Nautical Twilight 4:30 AM CDT 10:06 PM CDT
Astronomical Twilight 3:39 AM CDT 10:57 PM CDT
Moon 1:18 AM CDT (7/1) 3:05 PM CDT (7/1)
Length of Visible Light 16h 11m
Length of Day
15h 04m
Waning Crescent, 35% of the Moon is Illuminated
Jul 1
Waning Crescent
Jul 8
New
Jul 15
First Quarter
Jul 22
Full
Jul 29
Last Quarter

Hourly Weather History & Observations

Time (CDT) Temp. Dew Point Humidity Pressure Visibility Wind Dir Wind Speed Gust Speed Precip Events Conditions
12:15 AM 59.4 °F 49.5 °F 70% 30.09 in 10.0 mi NNW 6.9 mph - N/A   Clear
12:35 AM 59.0 °F 49.3 °F 70% 30.09 in 10.0 mi NNW 6.9 mph - N/A   Clear
12:55 AM 59.0 °F 49.5 °F 71% 30.09 in 10.0 mi North 6.9 mph - N/A   Clear
1:15 AM 59.2 °F 49.6 °F 71% 30.09 in 10.0 mi North 6.9 mph - N/A   Clear
1:35 AM 58.1 °F 49.3 °F 72% 30.09 in 10.0 mi NNW 5.8 mph - N/A   Clear
1:55 AM 58.1 °F 49.5 °F 73% 30.09 in 10.0 mi North 5.8 mph - N/A   Clear
2:15 AM 57.4 °F 49.5 °F 75% 30.09 in 10.0 mi NNW 6.9 mph - N/A   Clear
2:35 AM 57.4 °F 49.8 °F 76% 30.09 in 10.0 mi North 5.8 mph - N/A   Clear
2:55 AM 56.8 °F 49.5 °F 76% 30.09 in 10.0 mi NNW 6.9 mph - N/A   Clear
3:15 AM 56.3 °F 49.3 °F 77% 30.09 in 10.0 mi NNW 5.8 mph - N/A   Clear
3:35 AM 56.8 °F 49.3 °F 76% 30.09 in 10.0 mi NNW 5.8 mph - N/A   Clear
3:55 AM 56.3 °F 49.1 °F 77% 30.09 in 10.0 mi NW 5.8 mph - N/A   Clear
4:15 AM 54.5 °F 49.1 °F 82% 30.10 in 10.0 mi NW 5.8 mph - N/A   Clear
4:35 AM 54.9 °F 49.1 °F 81% 30.10 in 10.0 mi NW 5.8 mph - N/A   Clear
4:55 AM 55.4 °F 49.5 °F 80% 30.10 in 10.0 mi NW 6.9 mph - N/A   Clear
5:15 AM 54.0 °F 49.1 °F 84% 30.11 in 10.0 mi NNW 5.8 mph - N/A   Clear
5:35 AM 54.3 °F 49.1 °F 83% 30.11 in 10.0 mi NW 6.9 mph - N/A   Clear
5:55 AM 53.8 °F 49.1 °F 84% 30.12 in 10.0 mi NW 5.8 mph - N/A   Clear
6:15 AM 54.5 °F 49.5 °F 83% 30.13 in 10.0 mi NW 5.8 mph - N/A   Clear
6:35 AM 55.8 °F 50.0 °F 81% 30.13 in 10.0 mi NW 5.8 mph - N/A   Clear
6:55 AM 56.1 °F 50.5 °F 82% 30.13 in 10.0 mi NW 5.8 mph - N/A   Clear
7:15 AM 57.4 °F 50.7 °F 78% 30.13 in 10.0 mi NW 6.9 mph - N/A   Clear
7:35 AM 57.7 °F 51.1 °F 78% 30.14 in 10.0 mi NW 5.8 mph - N/A   Clear
7:55 AM 59.0 °F 52.0 °F 78% 30.14 in 10.0 mi NW 5.8 mph - N/A   Clear
8:15 AM 61.7 °F 52.9 °F 73% 30.14 in 10.0 mi NNW 5.8 mph - N/A   Clear
8:35 AM 64.4 °F 53.1 °F 67% 30.14 in 10.0 mi NNW 8.1 mph - N/A   Clear
8:55 AM 66.7 °F 54.7 °F 65% 30.15 in 10.0 mi NNW 4.6 mph - N/A   Clear
9:15 AM 68.0 °F 52.7 °F 58% 30.15 in 10.0 mi North 6.9 mph - N/A   Clear
9:35 AM 68.0 °F 52.5 °F 58% 30.15 in 10.0 mi North 6.9 mph - N/A   Clear
9:55 AM 68.5 °F 54.1 °F 60% 30.15 in 10.0 mi North 5.8 mph - N/A   Clear
10:15 AM 71.2 °F 52.5 °F 52% 30.15 in 10.0 mi North 8.1 mph - N/A   Clear
10:35 AM 72.7 °F 52.3 °F 49% 30.14 in 10.0 mi North 5.8 mph - N/A   Clear
10:55 AM 73.0 °F 52.3 °F 48% 30.15 in 10.0 mi North 9.2 mph - N/A   Clear
11:15 AM 74.3 °F 52.0 °F 46% 30.15 in 10.0 mi North 9.2 mph - N/A   Clear
11:35 AM 75.0 °F 52.3 °F 45% 30.14 in 10.0 mi North 8.1 mph - N/A   Clear
11:55 AM 75.9 °F 53.2 °F 45% 30.14 in 10.0 mi NNE 8.1 mph - N/A   Clear
12:15 PM 76.8 °F 52.7 °F 43% 30.14 in 10.0 mi North 9.2 mph 16.1 mph N/A   Clear
12:35 PM 77.0 °F 51.8 °F 41% 30.13 in 10.0 mi North 8.1 mph 17.3 mph N/A   Clear
12:55 PM 78.6 °F 53.1 °F 41% 30.13 in 10.0 mi NNE 12.7 mph 17.3 mph N/A   Clear
1:15 PM 78.6 °F 49.8 °F 36% 30.13 in 10.0 mi NNE 13.8 mph 18.4 mph N/A   Clear
1:35 PM 79.3 °F 49.6 °F 35% 30.12 in 10.0 mi NNE 12.7 mph 20.7 mph N/A   Clear
1:55 PM 79.2 °F 49.1 °F 35% 30.12 in 10.0 mi NNE 11.5 mph 19.6 mph N/A   Scattered Clouds
2:15 PM 79.7 °F 50.9 °F 37% 30.12 in 10.0 mi NNE 11.5 mph - N/A   Scattered Clouds
2:35 PM 79.3 °F 48.7 °F 34% 30.11 in 10.0 mi NE 12.7 mph 17.3 mph N/A   Scattered Clouds
2:55 PM 79.9 °F 47.8 °F 32% 30.11 in 10.0 mi NNE 13.8 mph 17.3 mph N/A   Scattered Clouds
3:15 PM 80.2 °F 47.1 °F 31% 30.11 in 10.0 mi NNE 13.8 mph 18.4 mph N/A   Clear
3:35 PM 80.2 °F 47.8 °F 32% 30.11 in 10.0 mi NNE 11.5 mph 20.7 mph N/A   Scattered Clouds
3:55 PM 80.4 °F 48.2 °F 32% 30.10 in 10.0 mi NNE 12.7 mph 19.6 mph N/A   Scattered Clouds
4:15 PM 80.2 °F 48.6 °F 33% 30.10 in 10.0 mi North 11.5 mph - N/A   Scattered Clouds
4:35 PM 80.2 °F 47.7 °F 32% 30.10 in 10.0 mi North 11.5 mph - N/A   Clear
4:55 PM 80.1 °F 47.7 °F 32% 30.10 in 10.0 mi NNE 13.8 mph 17.3 mph N/A   Clear
5:15 PM 79.7 °F 47.7 °F 32% 30.10 in 10.0 mi NNE 11.5 mph - N/A   Scattered Clouds
5:35 PM 79.0 °F 48.7 °F 35% 30.10 in 10.0 mi North 11.5 mph - N/A   Scattered Clouds
5:55 PM 79.3 °F 48.4 °F 34% 30.10 in 10.0 mi NNE 12.7 mph 16.1 mph N/A   Scattered Clouds
6:15 PM 78.8 °F 47.8 °F 34% 30.10 in 10.0 mi NNE 11.5 mph - N/A   Clear
6:35 PM 78.3 °F 47.1 °F 33% 30.10 in 10.0 mi NNE 12.7 mph 17.3 mph N/A   Clear
6:55 PM 77.5 °F 48.6 °F 36% 30.09 in 10.0 mi NNE 10.4 mph - N/A   Clear
7:15 PM 76.6 °F 48.0 °F 36% 30.10 in 10.0 mi ENE 11.5 mph - N/A   Clear
7:35 PM 75.4 °F 48.6 °F 39% 30.10 in 10.0 mi NE 9.2 mph - N/A   Clear
7:55 PM 73.9 °F 48.2 °F 40% 30.11 in 10.0 mi NE 6.9 mph - N/A   Clear
8:15 PM 72.0 °F 49.3 °F 45% 30.11 in 10.0 mi NE 4.6 mph - N/A   Clear
8:35 PM 69.1 °F 51.3 °F 53% 30.11 in 10.0 mi NE 4.6 mph - N/A   Clear
8:55 PM 66.7 °F 52.2 °F 59% 30.11 in 10.0 mi NE 4.6 mph - N/A   Clear
9:15 PM 66.0 °F 51.8 °F 60% 30.12 in 10.0 mi NE 4.6 mph - N/A   Clear
9:35 PM 65.3 °F 51.6 °F 61% 30.12 in 10.0 mi NE 4.6 mph - N/A   Clear
9:55 PM 65.3 °F 51.6 °F 61% 30.12 in 10.0 mi NE 4.6 mph - N/A   Clear
10:15 PM 63.5 °F 51.4 °F 65% 30.13 in 10.0 mi NNE 3.5 mph - N/A   Clear
10:35 PM 63.7 °F 50.2 °F 61% 30.13 in 10.0 mi North 3.5 mph - N/A   Clear
10:55 PM 62.6 °F 51.1 °F 66% 30.13 in 10.0 mi North 4.6 mph - N/A   Clear
11:15 PM 62.2 °F 50.4 °F 65% 30.13 in 10.0 mi North 4.6 mph - N/A   Clear
11:35 PM 61.7 °F 50.9 °F 68% 30.13 in 10.0 mi NNW 4.6 mph - N/A   Clear
11:55 PM 60.3 °F 51.1 °F 72% 30.13 in 10.0 mi NNW 4.6 mph - N/A   Clear